Showing default

GOOD ANCESTOR KILAKILA, 64528

Orbit data source: Space-Track

GOOD ANCESTOR KILAKILA, 64528 is a Solomon Islander payload satellite in SSO that was launched on Mon, 23 Jun 2025 UTC via an FALCON 9 launch vehicle from the Air Force Western Test Range (AFWTR). Payload-class satellites include a variety of spacecraft equipped with specific instruments for various scientific and technological missions. These include communications satellites like Starlink; space stations such as the ISS; scientific satellites like the Hubble; Earth observation satellites from companies like Planet Labs, Umbra, and HawkEye 360; GPS; miniature CubeSats for education and research; and military/defense satellites.

Loading next visibility...
Identifier
64528, 2025-135A
Orbit
SSO
Country
Flag of SBSB / SLB
Related business
Manufacturer
GAF
Mission
Operational Amateur Communications
Bus & Motor
CUBESAT 2U, Unknown motor
Mass
2 kg wet, 2 kg dry
Launch date (UTC)
2025-06-23 (1 year ago)
Launch vehicle
FALCON 9
Launch site
Air Force Western Test Range (AFWTR)
Object type
Payload
Rocket body
Debris
Shape & HBR
Box, 0.1 m
Radar Cross Section
0.025 m², Medium (>0.1 m² and < 1m²)

Expand to show TLE details & history
Last TLE update: 1 day ago

TLE from 1 day ago
0 GOOD ANCESTOR KILAKILA
1 64528U 25135A   26234.86089944  .00007414  00000-0  30030-3 0  9991
2 64528  97.4679 349.8475 0003604 324.9048  35.1952 15.24960746 65046
Epoch: 2026-08-22T20:39Z
TLE epoch observation values (Epoch: 2026-08-22T20:39:41.711Z)
Latitude
-0°
Longitude
68.75847°
Altitude
491.975 km
Speed
7.62 km/s
True Right ascension
23h 19m 23s
True Declination
0° 00' 00"
Sunlit
Object was in full shadow at epoch
Visualization orbit readout
Latitude
Unknown
Longitude
Unknown
Altitude
Unknown
Speed
Unknown
Apparent Right ascension
Unknown
Apparent Declination
Unknown
Sunlit
N/A
Visualization observer readout
Local Sidereal Time
23:04:00
Azimuth
Unknown
Elevation
Unknown
Doppler factor
Unknown
Orbital elements
Apogee altitude
490.34 km
Perigee altitude
485.391 km
Semi-major axis
6,866.002 km
Eccentricity
0.00036
Inclination
97.4679°
RAAN
349.8475°
Arg. of periapsis
324.9048°
True anomaly
35.21901°
Mean anomaly
35.1952°
Eccentric anomaly
35.20711°
Mean motion
3.81494 °/min
Orbital period
94.37 mins
BSTAR
0.0003003
Loading maneuver chart data...
Computing Atmospheric mass density...
Loading historical data...
Loading historical data...
Loading historical data...
Loading historical data...
Loading historical data...
Loading historical data...
Loading historical data...

Documentation

Showing up to 5 results
|